• Join FlightAware (Why Join?)
  • Login
  • US Flag 
04:04AM EDT


 

Airport Tracker/Info


-or-


 

Live Flight TrackerFlight Track Log ✈ DAL268 ✈ 19-Apr-2013 ✈ KJFK - LLBG / TLV

Flight Track Log - Related Links

Times and Time Zones

All times are in EDT time to prevent confusion due to time zone crossing. See the DAL268 flight status page for this flight to view local times or setup timezone preferences in your user account.

Time Position Orientation Groundspeed Altitude Reporting Facility
EDT Latitude Longitude Course Direction KTS MPH feet Rate Location/Type
01:52AM 40.6080 -73.7900 208° Southwest 180 207 700  Level FlightAware
01:53AM 40.5870 -73.8120 219° Southwest 187 215 1,600 1,620 Climbing FlightAware
01:53AM 40.5810 -73.8190 222° Southwest 198 228 1,800 900 Climbing FlightAware
01:54AM 40.5570 -73.8420 216° Southwest 243 280 2,200 900 Climbing FlightAware
01:54AM 40.5370 -73.8450 187° South 268 308 2,500 1,380 Climbing FlightAware
01:54AM 40.5210 -73.8390 164° South 281 323 2,900 2,520 Climbing FlightAware
01:55AM 40.4930 -73.8120 144° Southeast 289 333 4,200 2,700 Climbing FlightAware
01:55AM 40.4860 -73.7880 111° Southeast 302 348 4,700 2,160 Climbing FlightAware
01:55AM 40.4848 -73.7725 96° East 312 359 5,000 2,400 Climbing FlightAware ADS-B
01:55AM 40.4854 -73.7660 83° East 314 361 5,100 2,520 Climbing FlightAware ADS-B
01:55AM 40.4865 -73.7582 79° East 317 365 5,300 2,640 Climbing FlightAware ADS-B
01:55AM 40.4887 -73.7491 72° East 320 368 5,500 3,000 Climbing FlightAware ADS-B
01:55AM 40.4918 -73.7401 66° East 322 371 5,800 2,100 Climbing FlightAware ADS-B
01:55AM 40.5005 -73.7187 62° Northeast 330 380 6,100 1,560 Climbing FlightAware ADS-B
01:55AM 40.5024 -73.7130 66° East 331 381 6,200 2,640 Climbing FlightAware ADS-B
01:56AM 40.5049 -73.7029 72° East 330 380 6,500 2,400 Climbing FlightAware ADS-B
01:56AM 40.5065 -73.6946 76° East 331 381 6,600 1,320 Climbing FlightAware ADS-B
01:56AM 40.5075 -73.6845 83° East 332 382 6,700 1,860 Climbing FlightAware ADS-B
01:56AM 40.5080 -73.6567 89° East 334 384 7,200 2,400 Climbing FlightAware ADS-B
01:56AM 40.5076 -73.6244 91° East 338 389 7,900 2,460 Climbing FlightAware ADS-B
01:56AM 40.5085 -73.5925 88° East 341 392 8,500 2,700 Climbing FlightAware ADS-B
01:57AM 40.5100 -73.5596 87° East 341 392 9,300 2,520 Climbing FlightAware ADS-B
01:57AM 40.5112 -73.5394 86° East 346 398 9,600 1,860 Climbing FlightAware ADS-B
01:57AM 40.5123 -73.5270 83° East 352 405 9,800 1,800 Climbing FlightAware ADS-B
01:57AM 40.5135 -73.5173 81° East 360 414 9,900 1,680 Climbing FlightAware ADS-B
01:57AM 40.5151 -73.5101 74° East 366 421 10,000 1,740 Climbing FlightAware ADS-B
01:58AM 40.5382 -73.4468 64° Northeast 391 450 10,900 1,440 Climbing FlightAware ADS-B
01:58AM 40.5644 -73.3783 63° Northeast 419 482 11,500 1,140 Climbing FlightAware ADS-B
01:59AM 40.5932 -73.3025 63° Northeast 445 512 12,100 1,200 Climbing FlightAware ADS-B
01:59AM 40.6094 -73.2615 62° Northeast 459 528 12,500 1,620 Climbing FlightAware ADS-B
01:59AM 40.6474 -73.1915 54° Northeast 478 550 13,400 1,920 Climbing FlightAware ADS-B
02:00AM 40.6931 -73.1236 48° Northeast 486 559 14,500 1,920 Climbing FlightAware ADS-B
02:00AM 40.7391 -73.0544 49° Northeast 498 573 15,400 1,860 Climbing FlightAware ADS-B
02:01AM 40.7858 -72.9842 49° Northeast 507 583 16,400 1,740 Climbing FlightAware ADS-B
02:01AM 40.8329 -72.9134 49° Northeast 517 595 17,200 1,560 Climbing FlightAware ADS-B
02:02AM 40.8808 -72.8410 49° Northeast 527 606 18,000 1,560 Climbing FlightAware ADS-B
02:03AM 40.9585 -72.7236 49° Northeast 532 612 19,300 1,800 Climbing FlightAware ADS-B
02:04AM 41.0435 -72.5947 49° Northeast 542 624 21,000 1,620 Climbing FlightAware ADS-B
02:05AM 41.1370 -72.4530 49° Northeast 542 624 22,400 1,380 Climbing FlightAware
02:05AM 41.1810 -72.3850 49° Northeast 555 639 23,100 1,560 Climbing FlightAware
02:06AM 41.2660 -72.2540 49° Northeast 557 641 24,500 1,500 Climbing FlightAware
02:07AM 41.3400 -72.1400 49° Northeast 564 649 25,500 1,320 Climbing FlightAware
02:07AM 41.4150 -72.0240 49° Northeast 568 654 26,400 1,200 Climbing FlightAware
02:08AM 41.4840 -71.9180 49° Northeast 574 661 27,100 1,020 Climbing FlightAware
02:09AM 41.5610 -71.7970 50° Northeast 580 667 27,900 1,260 Climbing FlightAware
02:09AM 41.6310 -71.6880 49° Northeast 577 664 28,900 1,440 Climbing FlightAware
02:10AM 41.7050 -71.5730 49° Northeast 571 657 30,000 1,320 Climbing FlightAware
02:11AM 41.7760 -71.4600 50° Northeast 570 656 30,800 660 Climbing FlightAware
02:12AM 41.8550 -71.3360 49° Northeast 572 658 31,000 120 Climbing FlightAware
02:12AM 41.9230 -71.2270 50° Northeast 572 658 31,000  Level FlightAware
02:13AM 41.9900 -71.1200 50° Northeast 572 658 31,000  Level FlightAware
02:14AM 42.0670 -70.9970 50° Northeast 571 657 31,000  Level FlightAware
02:14AM 42.1320 -70.8920 50° Northeast 570 656 31,000  Level FlightAware
02:15AM 42.2000 -70.7830 50° Northeast 568 654 31,000  Level FlightAware
02:16AM 42.2770 -70.6580 50° Northeast 568 654 31,000  Level FlightAware
02:16AM 42.3430 -70.5500 50° Northeast 568 654 31,000  Level FlightAware
02:17AM 42.4250 -70.4170 50° Northeast 564 649 31,000  Level FlightAware
02:18AM 42.4820 -70.3240 50° Northeast 561 646 31,000  Level FlightAware
02:19AM 42.5580 -70.1980 51° Northeast 561 646 31,000  Level FlightAware
02:21AM 42.7850 -69.8240 50° Northeast 563 648 31,000  Level FlightAware
02:22AM 42.8520 -69.7100 51° Northeast 560 644 31,000  Level FlightAware
02:22AM 42.9270 -69.5850 51° Northeast 561 646 31,000  Level FlightAware
02:23AM 43.0020 -69.4580 51° Northeast 565 650 31,000  Level FlightAware
02:24AM 43.0640 -69.3530 51° Northeast 568 654 31,000  Level FlightAware
02:24AM 43.1340 -69.2350 51° Northeast 569 655 31,000  Level FlightAware
02:25AM 43.2070 -69.1090 51° Northeast 569 655 31,000  Level FlightAware
02:26AM 43.2520 -69.0330 51° Northeast 569 655 31,000  Level FlightAware
02:27AM 43.3590 -68.8500 51° Northeast 569 655 31,000  Level FlightAware
02:27AM 43.4150 -68.7540 51° Northeast 569 655 31,000  Level FlightAware
02:28AM 43.4870 -68.6290 52° Northeast 570 656 31,000  Level FlightAware
02:29AM 43.5660 -68.4900 52° Northeast 572 658 31,000  Level FlightAware
02:29AM 43.6170 -68.4000 52° Northeast 571 657 31,000  Level FlightAware
02:30AM 43.6860 -68.2820 51° Northeast 571 657 31,000  Level FlightAware
02:31AM 43.7570 -68.1610 51° Northeast 571 657 31,000  Level FlightAware
02:32AM 43.9050 -67.8900 53° Northeast 573 659 31,000  Level FlightAware
02:34AM 44.0280 -67.6710 52° Northeast 575 662 31,000 -60 Level FlightAware
02:35AM 44.1410 -67.4660 52° Northeast 567 652 30,900  Descending FlightAware
02:36AM 44.2700 -67.2340 52° Northeast 567 652 31,000  Climbing FlightAware
02:37AM 44.3820 -67.0290 53° Northeast 567 652 31,000 300 Level FlightAware
02:38AM 44.4930 -66.8220 53° Northeast 566 651 31,800 840 Climbing FlightAware
02:39AM 44.5660 -66.6880 53° Northeast 568 654 32,700 840 Climbing FlightAware
02:40AM 44.6280 -66.5710 53° Northeast 569 655 33,000 180 Climbing FlightAware
02:41AM 44.7010 -66.4360 53° Northeast 568 654 33,000  Level FlightAware
02:41AM 44.7620 -66.3200 53° Northeast 566 651 33,000  Level FlightAware
02:42AM 44.8260 -66.2000 53° Northeast 566 651 33,000  Level FlightAware
02:43AM 44.8960 -66.0670 53° Northeast 565 650 33,000  Level FlightAware
02:43AM 44.9570 -65.9510 53° Northeast 565 650 33,000  Level FlightAware
02:44AM 45.0280 -65.8150 54° Northeast 565 650 33,000  Level FlightAware
02:45AM 45.0890 -65.6970 54° Northeast 556 640 33,000  Level FlightAware
02:45AM 45.1510 -65.5780 54° Northeast 554 638 33,000  Level FlightAware
02:46AM 45.2200 -65.4450 54° Northeast 553 636 33,000  Level FlightAware
02:47AM 45.2810 -65.3260 54° Northeast 553 636 33,000  Level FlightAware
02:48AM 45.3530 -65.1850 54° Northeast 554 638 33,000  Level FlightAware
02:48AM 45.4130 -65.0670 54° Northeast 561 646 33,000  Level FlightAware
02:49AM 45.4740 -64.9460 54° Northeast 561 646 33,000  Level FlightAware
02:50AM 45.5440 -64.8090 54° Northeast 561 646 33,000  Level FlightAware
02:50AM 45.6000 -64.6970 54° Northeast 564 649 33,000  Level FlightAware
02:51AM 45.6600 -64.5770 54° Northeast 565 650 33,000  Level FlightAware
02:52AM 45.7340 -64.4290 54° Northeast 566 651 33,000  Level FlightAware
02:52AM 45.7900 -64.3160 55° Northeast 565 650 33,000  Level FlightAware
02:53AM 45.8530 -64.1880 55° Northeast 564 649 33,000  Level FlightAware
02:54AM 45.9130 -64.0700 54° Northeast 564 649 33,000  Level FlightAware
02:54AM 45.9710 -63.9490 55° Northeast 562 647 33,000  Level FlightAware
02:55AM 46.0310 -63.8240 55° Northeast 564 649 33,000  Level FlightAware
02:56AM 46.0930 -63.6970 55° Northeast 563 648 33,000  Level FlightAware
02:57AM 46.1560 -63.5660 55° Northeast 563 648 33,000  Level FlightAware
02:57AM 46.2070 -63.4620 55° Northeast 563 648 33,000  Level FlightAware
02:58AM 46.2580 -63.3570 55° Northeast 563 648 33,000  Level FlightAware
02:59AM 46.3440 -63.1730 56° Northeast 561 646 33,000  Level FlightAware
02:59AM 46.4020 -63.0520 55° Northeast 561 646 33,000  Level FlightAware
03:00AM 46.4650 -62.9210 55° Northeast 561 646 33,000  Level FlightAware
03:01AM 46.5390 -62.7600 56° Northeast 561 646 33,000  Level FlightAware
03:01AM 46.5920 -62.6450 56° Northeast 561 646 33,000  Level FlightAware
03:02AM 46.6670 -62.4840 56° Northeast 560 644 33,000  Level FlightAware
03:03AM 46.7240 -62.3610 56° Northeast 559 643 33,000  Level FlightAware
03:04AM 46.7830 -62.2340 56° Northeast 562 647 33,000  Level FlightAware
03:04AM 46.8460 -62.0960 56° Northeast 561 646 33,000  Level FlightAware
03:05AM 46.9040 -61.9690 56° Northeast 561 646 33,000  Level FlightAware
03:06AM 46.9690 -61.8250 56° Northeast 561 646 33,000  Level FlightAware
03:06AM 47.0260 -61.6990 56° Northeast 560 644 33,000  Level FlightAware
03:07AM 47.0900 -61.5570 56° Northeast 557 641 33,000  Level FlightAware
03:08AM 47.1460 -61.4300 57° Northeast 556 640 33,000  Level FlightAware
03:09AM 47.2110 -61.2860 56° Northeast 555 639 33,000  Level FlightAware
03:09AM 47.2670 -61.1590 57° Northeast 555 639 33,000  Level FlightAware
03:10AM 47.3230 -61.0330 57° Northeast 553 636 33,000  Level FlightAware
03:11AM 47.3940 -60.8710 57° Northeast 553 636 33,000  Level FlightAware
03:11AM 47.4420 -60.7630 57° Northeast 553 636 33,000  Level FlightAware
03:12AM 47.4890 -60.6550 57° Northeast 553 636 33,000  Level FlightAware
03:13AM 47.5480 -60.5200 57° Northeast 553 636 33,000  Level FlightAware
03:14AM 47.5960 -60.4120 57° Northeast 553 636 33,000  Level FlightAware
03:14AM 47.6430 -60.3040 57° Northeast 553 636 33,000  Level FlightAware
03:15AM 47.6900 -60.1960 57° Northeast 553 636 33,000  Level FlightAware
03:16AM 47.7500 -60.0600 57° Northeast 553 636 33,000  Level FlightAware
03:16AM 47.7970 -59.9520 57° Northeast 553 636 33,000  Level FlightAware
03:17AM 47.8440 -59.8430 57° Northeast 553 636 33,000  Level FlightAware
03:18AM 47.8920 -59.7340 57° Northeast 553 636 33,000  Level FlightAware
03:18AM 47.9390 -59.6250 57° Northeast 553 636 33,000  Level FlightAware
03:19AM 47.9980 -59.4890 57° Northeast 553 636 33,000  Level FlightAware
03:20AM 48.0460 -59.3800 57° Northeast 553 636 33,000  Level FlightAware
03:20AM 48.1667 -59.0000 57° Northeast 550 633 33,000 -180 Level Gander Center
03:21AM 48.2000 -58.9167 59° Northeast 550 633 32,900  Descending Moncton Center
03:21AM 48.2333 -58.8500 53° Northeast 550 633 33,000 60 Climbing Gander Center
03:22AM 48.2833 -58.7333 57° Northeast 550 633 33,000  Level Moncton Center
03:23AM 48.3667 -58.5167 60° Northeast 550 633 33,000 -120 Level Moncton Center
03:23AM 48.4000 -58.4333 59° Northeast 550 633 32,900  Descending Gander Center
03:24AM 48.4500 -58.3333 53° Northeast 550 633 33,000 60 Climbing Moncton Center
03:25AM 48.5167 -58.1167 65° Northeast 550 633 33,000  Level Moncton Center
03:26AM 48.6000 -57.9333 55° Northeast 550 633 33,000 -120 Level Moncton Center
03:26AM 48.6333 -57.8500 59° Northeast 550 633 32,900 -120 Descending Gander Center
03:27AM 48.7000 -57.6333 65° Northeast 550 633 32,900 60 Level Gander Center
03:28AM 48.7333 -57.5333 63° Northeast 550 633 33,000 60 Climbing Moncton Center
03:29AM 48.8167 -57.3167 60° Northeast 550 633 33,000 -60 Level Moncton Center
03:34AM 49.1800 -56.2510 60° Northeast 546 628 32,900  Descending FlightAware
03:35AM 49.2290 -56.1000 64° Northeast 547 629 33,000 60 Climbing FlightAware
03:35AM 49.2680 -55.9830 63° Northeast 546 628 33,000  Level FlightAware
03:36AM 49.3310 -55.7900 63° Northeast 546 628 33,000  Level FlightAware
03:37AM 49.3690 -55.6730 63° Northeast 546 628 33,000  Level FlightAware
03:38AM 49.4180 -55.5260 63° Northeast 546 628 33,000  Level FlightAware
03:39AM 49.4570 -55.4080 63° Northeast 546 628 33,000  Level FlightAware
03:39AM 49.5280 -55.1670 66° East 551 634 33,000  Level FlightAware
03:40AM 49.5780 -55.0070 64° Northeast 548 631 33,000  Level FlightAware
03:41AM 49.6130 -54.8940 64° Northeast 547 629 33,000  Level FlightAware
03:41AM 49.6690 -54.7140 64° Northeast 548 631 33,000  Level FlightAware
03:42AM 49.7130 -54.5710 65° Northeast 546 628 33,000  Level FlightAware
03:43AM 49.7480 -54.4560 65° Northeast 546 628 33,000  Level FlightAware
03:44AM 49.8040 -54.2720 65° Northeast 545 627 33,000  Level FlightAware
03:44AM 49.8470 -54.1290 65° Northeast 546 628 33,000  Level FlightAware
03:45AM 49.8890 -53.9900 65° Northeast 547 629 33,000  Level FlightAware
03:46AM 49.9540 -53.7710 65° Northeast 548 631 33,000  Level FlightAware
03:47AM 49.9970 -53.6260 65° Northeast 546 628 33,000  Level FlightAware
03:47AM 50.0370 -53.4880 66° East 546 628 33,000  Level FlightAware
03:48AM 50.0850 -53.3250 65° Northeast 546 628 33,000  Level FlightAware
03:49AM 50.1180 -53.2120 65° Northeast 546 628 33,000  Level FlightAware
03:50AM 50.1830 -52.9900 65° Northeast 546 628 33,000  Level FlightAware
03:50AM 50.2190 -52.8690 65° Northeast 546 628 33,000  Level FlightAware
03:51AM 50.2550 -52.7470 65° Northeast 546 628 33,000  Level FlightAware
03:52AM 50.2920 -52.6250 65° Northeast 546 628 33,000  Level FlightAware
03:52AM 50.3280 -52.5030 65° Northeast 546 628 33,000 -120 Level FlightAware
03:53AM 50.3833 -52.2000 65° Northeast 550 633 32,900  Descending Moncton Center
03:54AM 49.7167 -55.0000 66° East 564 649 33,000 60 Climbing ETMS Enhanced Traffic Management System
03:54AM 49.7167 -55.0000 66° East 564 649 33,000  Level ETMS Enhanced Traffic Management System
03:54AM 50.4833 -51.8500 66° East 540 621 33,000 -180 Level Gander Center
03:55AM 50.5000 -51.7833 69° East 550 633 32,900 -120 Descending Moncton Center
03:56AM 50.5667 -51.5500 66° East 550 633 32,900  Level Moncton Center
03:57AM 50.6333 -51.3167 66° East 550 633 33,000  Climbing Moncton Center
03:57AM 50.6500 -51.2333 72° East 540 621 32,900  Descending Gander Center
03:58AM 50.6667 -51.1167 77° East 550 633 33,000  Climbing Moncton Center
03:59AM 50.7500 -50.8833 60° Northeast 540 621 32,900 -60 Descending Moncton Center
04:00AM 50.7833 -50.6833 75° East 550 633 32,900  Level Moncton Center
04:01AM 50.8500 -50.4500 66° East 550 633 32,900 60 Level Moncton Center
04:01AM 50.8833 -50.3667 58° Northeast 550 633 33,000 60 Climbing Gander Center
04:02AM 50.9333 -50.1333 71° East 550 633 33,000  Level Gander Center
04:03AM 50.9833 -49.9167 70° East 550 633 33,000  Level Gander Center
04:04AM 51.0000 -50.0000 77° East 553 636 33,000 -120 Level ETMS Enhanced Traffic Management System
04:04AM 51.0333 -49.6833 77° East 550 633 32,900  Descending Gander Center
04:06AM 51.0716 -49.4147 77° East  Level FlightAware Approximate
04:13AM 51.2854 -47.8171 77° East  Level FlightAware Approximate
04:14AM 51.3142 -47.5877 79° East  Level FlightAware Approximate
04:15AM 51.3425 -47.3580 79° East  Level FlightAware Approximate
04:16AM 51.3703 -47.1280 79° East  Level FlightAware Approximate
04:17AM 51.3978 -46.8977 79° East  Level FlightAware Approximate
04:18AM 51.4247 -46.6672 79° East  Level FlightAware Approximate
04:19AM 51.4512 -46.4364 79° East  Level FlightAware Approximate
04:20AM 51.4773 -46.2052 80° East  Level FlightAware Approximate
04:21AM 51.5029 -45.9739 80° East  Level FlightAware Approximate
04:22AM 51.5281 -45.7423 80° East  Level FlightAware Approximate
04:23AM 51.5528 -45.5104 80° East  Level FlightAware Approximate
04:24AM 51.5770 -45.2784 80° East  Level FlightAware Approximate
04:25AM 51.6008 -45.0460 81° East  Level FlightAware Approximate
04:26AM 51.6242 -44.8134 81° East  Level FlightAware Approximate
04:27AM 51.6470 -44.5806 81° East  Level FlightAware Approximate
04:28AM 51.6694 -44.3476 81° East  Level FlightAware Approximate
04:29AM 51.6914 -44.1143 81° East  Level FlightAware Approximate
04:30AM 51.7129 -43.8808 81° East  Level FlightAware Approximate
04:31AM 51.7339 -43.6471 82° East  Level FlightAware Approximate
04:32AM 51.7545 -43.4131 82° East  Level FlightAware Approximate
04:33AM 51.7746 -43.1790 82° East  Level FlightAware Approximate
04:34AM 51.7942 -42.9446 82° East  Level FlightAware Approximate
04:35AM 51.8134 -42.7101 82° East  Level FlightAware Approximate
04:36AM 51.8321 -42.4753 83° East  Level FlightAware Approximate
04:37AM 51.8503 -42.2404 83° East  Level FlightAware Approximate
04:38AM 51.8680 -42.0052 83° East  Level FlightAware Approximate
04:39AM 51.8853 -41.7699 83° East  Level FlightAware Approximate
04:40AM 51.9022 -41.5344 83° East  Level FlightAware Approximate
04:41AM 51.9185 -41.2988 83° East  Level FlightAware Approximate
04:42AM 51.9344 -41.0629 84° East  Level FlightAware Approximate
04:43AM 51.9498 -40.8269 84° East  Level FlightAware Approximate
04:44AM 51.9647 -40.5908 84° East  Level FlightAware Approximate
04:45AM 51.9792 -40.3544 84° East  Level FlightAware Approximate
04:46AM 51.9932 -40.1180 84° East  Level FlightAware Approximate
04:46AM 52.0000 -40.0000 77° East 554 638 33,000  Level ETMS Enhanced Traffic Management System
04:47AM 52.0167 -39.8839 77° East  Level FlightAware Approximate
04:48AM 52.0495 -39.6522 77° East  Level FlightAware Approximate
04:49AM 52.0819 -39.4202 77° East  Level FlightAware Approximate
04:50AM 52.1139 -39.1878 77° East  Level FlightAware Approximate
04:51AM 52.1454 -38.9550 77° East  Level FlightAware Approximate
04:52AM 52.2669 -38.0392 78° East 554 638 33,000  Level FlightAware Transoceanic
04:53AM 52.2980 -37.7925 78° East 554 638 33,000  Level FlightAware Transoceanic
04:54AM 52.3285 -37.5454 79° East 554 638 33,000  Level FlightAware Transoceanic
04:55AM 52.3586 -37.2980 79° East 554 638 33,000  Level FlightAware Transoceanic
04:56AM 52.3881 -37.0503 79° East 554 638 33,000  Level FlightAware Transoceanic
04:57AM 52.4171 -36.8022 79° East 554 638 33,000  Level FlightAware Transoceanic
04:58AM 52.4455 -36.5538 79° East 554 638 33,000  Level FlightAware Transoceanic
04:59AM 52.4735 -36.3051 80° East 554 638 33,000  Level FlightAware Transoceanic
05:00AM 52.5009 -36.0561 80° East 554 638 33,000  Level FlightAware Transoceanic
05:01AM 52.5279 -35.8068 80° East 554 638 33,000  Level FlightAware Transoceanic
05:02AM 52.5542 -35.5572 80° East 554 638 33,000  Level FlightAware Transoceanic
05:03AM 52.5801 -35.3072 80° East 554 638 33,000  Level FlightAware Transoceanic
05:04AM 52.6054 -35.0570 81° East 554 638 33,000  Level FlightAware Transoceanic
05:05AM 52.6302 -34.8065 81° East 554 638 33,000  Level FlightAware Transoceanic
05:06AM 52.6545 -34.5557 81° East 554 638 33,000  Level FlightAware Transoceanic
05:07AM 52.6783 -34.3047 81° East 554 638 33,000  Level FlightAware Transoceanic
05:08AM 52.7015 -34.0533 81° East 554 638 33,000  Level FlightAware Transoceanic
05:09AM 52.7242 -33.8017 82° East 554 638 33,000  Level FlightAware Transoceanic
05:10AM 52.7463 -33.5499 82° East 554 638 33,000  Level FlightAware Transoceanic
05:11AM 52.7679 -33.2978 82° East 554 638 33,000  Level FlightAware Transoceanic
05:12AM 52.7890 -33.0454 82° East 554 638 33,000  Level FlightAware Transoceanic
05:13AM 52.8096 -32.7928 82° East 554 638 33,000  Level FlightAware Transoceanic
05:14AM 52.8296 -32.5400 83° East 554 638 33,000  Level FlightAware Transoceanic
05:15AM 52.8491 -32.2869 83° East 554 638 33,000  Level FlightAware Transoceanic
05:16AM 52.8680 -32.0336 83° East 554 638 33,000  Level FlightAware Transoceanic
05:17AM 52.8864 -31.7801 83° East 554 638 33,000  Level FlightAware Transoceanic
05:18AM 52.9043 -31.5264 83° East 554 638 33,000  Level FlightAware Transoceanic
05:19AM 52.9216 -31.2725 84° East 554 638 33,000  Level FlightAware Transoceanic
05:20AM 52.9383 -31.0184 84° East 554 638 33,000  Level FlightAware Transoceanic
05:21AM 52.9546 -30.7640 84° East 554 638 33,000  Level FlightAware Transoceanic
05:22AM 52.9703 -30.5096 84° East 554 638 33,000  Level FlightAware Transoceanic
05:23AM 52.9854 -30.2549 84° East 554 638 33,000  Level FlightAware Transoceanic
05:24AM 52.9993 -30.0129 84° East  Level FlightAware Approximate
05:25AM 53.0127 -29.7708 85° East  Level FlightAware Approximate
05:26AM 53.0079 -29.7832 86° East  Level FlightAware Approximate
05:26AM 53.0000 -30.0000 86° East 555 639 33,000  Level ETMS Enhanced Traffic Management System
05:27AM 53.0162 -29.5404 87° East  Level FlightAware Approximate
05:28AM 53.0241 -29.2976 87° East  Level FlightAware Approximate
05:29AM 53.0314 -29.0546 87° East  Level FlightAware Approximate
05:30AM 53.0382 -28.8116 87° East  Level FlightAware Approximate
05:31AM 53.0446 -28.5685 87° East  Level FlightAware Approximate
05:32AM 53.0684 -27.9518 88° East 555 639 33,000  Level FlightAware Transoceanic
05:33AM 53.0745 -27.6954 88° East 555 639 33,000  Level FlightAware Transoceanic
05:34AM 53.0800 -27.4389 88° East 555 639 33,000  Level FlightAware Transoceanic
05:35AM 53.0850 -27.1824 88° East 555 639 33,000  Level FlightAware Transoceanic
05:36AM 53.0894 -26.9257 88° East 555 639 33,000  Level FlightAware Transoceanic
05:37AM 53.0933 -26.6691 89° East 555 639 33,000  Level FlightAware Transoceanic
05:38AM 53.0966 -26.4124 89° East 555 639 33,000  Level FlightAware Transoceanic
05:39AM 53.0993 -26.1556 89° East 555 639 33,000  Level FlightAware Transoceanic
05:40AM 53.1016 -25.8988 89° East 555 639 33,000  Level FlightAware Transoceanic
05:41AM 53.1032 -25.6420 89° East 555 639 33,000  Level FlightAware Transoceanic
05:42AM 53.1043 -25.3852 90° East 555 639 33,000  Level FlightAware Transoceanic
05:43AM 53.1049 -25.1284 90° East 555 639 33,000  Level FlightAware Transoceanic
05:44AM 53.1049 -24.8716 90° East 555 639 33,000  Level FlightAware Transoceanic
05:45AM 53.1043 -24.6148 90° East 555 639 33,000  Level FlightAware Transoceanic
05:46AM 53.1032 -24.3580 91° East 555 639 33,000  Level FlightAware Transoceanic
05:47AM 53.1016 -24.1012 91° East 555 639 33,000  Level FlightAware Transoceanic
05:48AM 53.0993 -23.8444 91° East 555 639 33,000  Level FlightAware Transoceanic
05:49AM 53.0966 -23.5876 91° East 555 639 33,000  Level FlightAware Transoceanic
05:50AM 53.0933 -23.3309 91° East 555 639 33,000  Level FlightAware Transoceanic
05:51AM 53.0894 -23.0743 92° East 555 639 33,000  Level FlightAware Transoceanic
05:52AM 53.0850 -22.8176 92° East 555 639 33,000  Level FlightAware Transoceanic
05:53AM 53.0800 -22.5611 92° East 555 639 33,000  Level FlightAware Transoceanic
05:54AM 53.0745 -22.3046 92° East 555 639 33,000  Level FlightAware Transoceanic
05:55AM 53.0684 -22.0482 92° East 555 639 33,000  Level FlightAware Transoceanic
05:56AM 53.0618 -21.7918 93° East 555 639 33,000  Level FlightAware Transoceanic
05:57AM 53.0546 -21.5355 93° East 555 639 33,000  Level FlightAware Transoceanic
05:58AM 53.0469 -21.2794 93° East 555 639 33,000  Level FlightAware Transoceanic
05:59AM 53.0386 -21.0233 93° East 555 639 33,000  Level FlightAware Transoceanic
06:00AM 53.0298 -20.7673 93° East 555 639 33,000  Level FlightAware Transoceanic
06:01AM 53.0204 -20.5114 94° East 555 639 33,000  Level FlightAware Transoceanic
06:02AM 53.0105 -20.2556 94° East 555 639 33,000  Level FlightAware Transoceanic
06:03AM 53.0005 -20.0131 94° East  Level FlightAware Approximate
06:04AM 52.9901 -19.7706 94° East  Level FlightAware Approximate
06:05AM 52.9548 -19.7967 110° East  Level FlightAware Approximate
06:06AM 52.9036 -19.5693 110° East  Level FlightAware Approximate
06:07AM 52.8521 -19.3424 111° Southeast  Level FlightAware Approximate
06:08AM 52.8001 -19.1161 111° Southeast  Level FlightAware Approximate
06:09AM 52.7477 -18.8903 111° Southeast  Level FlightAware Approximate
06:10AM 52.6948 -18.6651 111° Southeast  Level FlightAware Approximate
06:11AM 52.6415 -18.4404 111° Southeast  Level FlightAware Approximate
06:12AM 52.5878 -18.2163 111° Southeast  Level FlightAware Approximate
06:13AM 52.5337 -17.9927 112° Southeast  Level FlightAware Approximate
06:14AM 52.4791 -17.7697 112° Southeast  Level FlightAware Approximate
06:15AM 52.4242 -17.5472 112° Southeast  Level FlightAware Approximate
06:16AM 52.3686 -17.3254 112° Southeast  Level FlightAware Approximate
06:17AM 52.3125 -17.1043 112° Southeast  Level FlightAware Approximate
06:18AM 52.2559 -16.8837 113° Southeast  Level FlightAware Approximate
06:19AM 52.1990 -16.6637 113° Southeast  Level FlightAware Approximate
06:20AM 52.1416 -16.4443 113° Southeast  Level FlightAware Approximate
06:21AM 52.0838 -16.2254 113° Southeast  Level FlightAware Approximate
06:22AM 52.0256 -16.0071 113° Southeast  Level FlightAware Approximate
06:23AM 51.9671 -15.7894 114° Southeast  Level FlightAware Approximate
06:24AM 51.9081 -15.5722 114° Southeast  Level FlightAware Approximate
06:25AM 51.8487 -15.3556 114° Southeast  Level FlightAware Approximate
06:26AM 51.7889 -15.1396 114° Southeast  Level FlightAware Approximate
06:27AM 51.7283 -14.9245 115° Southeast  Level FlightAware Approximate
06:28AM 51.6664 -14.7107 115° Southeast  Level FlightAware Approximate
06:29AM 51.6041 -14.4974 115° Southeast  Level FlightAware Approximate
06:30AM 51.5414 -14.2847 115° Southeast  Level FlightAware Approximate
06:31AM 51.4784 -14.0726 115° Southeast  Level FlightAware Approximate
06:32AM 51.4162 -13.8601 115° Southeast  Level FlightAware Approximate
06:33AM 51.3540 -13.6479 115° Southeast  Level FlightAware Approximate
06:34AM 51.2914 -13.4363 115° Southeast  Level FlightAware Approximate
06:35AM 51.2284 -13.2253 115° Southeast  Level FlightAware Approximate
06:36AM 51.1650 -13.0149 116° Southeast  Level FlightAware Approximate
06:37AM 51.1013 -12.8050 116° Southeast  Level FlightAware Approximate
06:38AM 51.0372 -12.5958 116° Southeast  Level FlightAware Approximate
06:39AM 50.9729 -12.3869 116° Southeast  Level FlightAware Approximate
06:40AM 50.9083 -12.1786 116° Southeast  Level FlightAware Approximate
06:41AM 50.8433 -11.9709 116° Southeast  Level FlightAware Approximate
06:41AM 50.9190 -11.6590 116° Southeast 503 579 35,000  Level FlightAware
06:42AM 50.7779 -11.7638 116° Southeast  Level FlightAware Approximate
06:42AM 50.8720 -11.5310 120° Southeast 502 578 35,000  Level FlightAware
06:43AM 50.8170 -11.3810 120° Southeast 501 577 35,000  Level FlightAware
06:44AM 50.7680 -11.2470 120° Southeast 501 577 35,000  Level FlightAware
06:44AM 50.7070 -11.0850 121° Southeast 499 574 35,000  Level FlightAware
06:45AM 50.6580 -10.9560 121° Southeast 497 572 35,000  Level FlightAware
06:46AM 50.5990 -10.7970 120° Southeast 496 571 35,000  Level FlightAware
06:47AM 50.5600 -10.6910 120° Southeast 496 571 35,000  Level FlightAware
06:47AM 50.5210 -10.5850 120° Southeast 496 571 35,000  Level FlightAware
06:48AM 50.4560 -10.4200 122° Southeast 495 570 35,000  Level FlightAware
06:49AM 50.4110 -10.2990 120° Southeast 495 570 35,000  Level FlightAware
06:49AM 50.3720 -10.1930 120° Southeast 495 570 35,000  Level FlightAware
06:50AM 50.3230 -10.0610 120° Southeast 495 570 35,000  Level FlightAware
06:51AM 50.2500 -9.8890 124° Southeast 500 575 35,000  Level FlightAware
06:52AM 50.1930 -9.7440 122° Southeast 500 575 35,000  Level FlightAware
06:52AM 50.1390 -9.6060 121° Southeast 499 574 35,000 -120 Level FlightAware
06:53AM 50.0910 -9.4850 122° Southeast 497 572 34,900 -120 Descending FlightAware
06:54AM 50.0430 -9.3650 122° Southeast 495 570 34,900  Level FlightAware
06:54AM 49.9880 -9.2270 122° Southeast 493 567 34,900  Level FlightAware
06:55AM 49.9450 -9.1180 121° Southeast 492 566 34,900 -1,620 Level FlightAware
06:55AM 49.9061 -8.9874 121° Southeast 490 564 33,400 -2,280 Descending FlightAware UK
06:56AM 49.8844 -8.9338 122° Southeast 488 562 33,400 3,180 Level FlightAware UK
06:56AM 49.8870 -8.9760 122° Southeast 490 564 34,900  Climbing FlightAware
06:56AM 49.8483 -8.8446 122° Southeast 488 562 33,400 -2,400 Descending FlightAware UK
06:57AM 49.8268 -8.7911 122° Southeast 488 562 33,400 4,500 Level FlightAware UK
06:57AM 49.8390 -8.8560 122° Southeast 491 565 34,900  Climbing FlightAware
06:57AM 49.8052 -8.7377 122° Southeast 488 562 33,400 -2,700 Descending FlightAware UK
06:57AM 49.7834 -8.6844 122° Southeast 486 559 33,400 3,720 Level FlightAware UK
06:57AM 49.7910 -8.7370 122° Southeast 490 564 34,900  Climbing FlightAware
06:58AM 49.7543 -8.6136 122° Southeast 488 562 33,400 -2,520 Descending FlightAware UK
06:58AM 49.7325 -8.5605 122° Southeast 488 562 33,400 3,300 Level FlightAware UK
06:58AM 49.7350 -8.6000 122° Southeast 491 565 34,900  Climbing FlightAware
06:58AM 49.7034 -8.4897 122° Southeast 488 562 33,400 -2,760 Descending FlightAware UK
06:59AM 49.6815 -8.4366 122° Southeast 488 562 33,400 3,600 Level FlightAware UK
06:59AM 49.6860 -8.4810 122° Southeast 491 565 34,900  Climbing FlightAware
06:59AM 49.6523 -8.3660 122° Southeast 486 559 33,400 -2,580 Descending FlightAware UK
06:59AM 49.6304 -8.3131 123° Southeast 488 562 33,400 3,900 Level FlightAware UK
06:59AM 49.6380 -8.3650 123° Southeast 491 565 34,900  Climbing FlightAware
07:00AM 49.6012 -8.2425 123° Southeast 486 559 33,400 -2,460 Descending FlightAware UK
07:00AM 49.5792 -8.1897 123° Southeast 486 559 33,400 3,420 Level FlightAware UK
07:00AM 49.5840 -8.2350 123° Southeast 488 562 34,900  Climbing FlightAware
07:00AM 49.5499 -8.1192 123° Southeast 488 562 33,400 -2,700 Descending FlightAware UK
07:01AM 49.5279 -8.0663 123° Southeast 488 562 33,400 3,720 Level FlightAware UK
07:01AM 49.5380 -8.1240 123° Southeast 492 566 34,900  Climbing FlightAware
07:01AM 49.5034 -7.9906 123° Southeast 488 562 33,400 -2,160 Descending FlightAware UK
07:01AM 49.4870 -7.9094 107° East 488 562 33,400 3,300 Level FlightAware UK
07:01AM 49.4980 -7.9690 107° East 499 574 34,900  Climbing FlightAware
07:02AM 49.4780 -7.8469 107° East 490 564 33,400 -2,760 Descending FlightAware UK
07:02AM 49.4692 -7.7843 102° East 490 564 33,400 3,600 Level FlightAware UK
07:02AM 49.4790 -7.8290 102° East 501 577 34,900  Climbing FlightAware
07:02AM 49.4582 -7.7007 102° East 490 564 33,400 -2,580 Descending FlightAware UK
07:03AM 49.4501 -7.6378 101° East 488 562 33,400 3,900 Level FlightAware UK
07:03AM 49.4600 -7.6890 101° East 502 578 34,900  Climbing FlightAware
07:03AM 49.4394 -7.5538 101° East 488 562 33,400 -2,460 Descending FlightAware UK
07:03AM 49.4311 -7.4910 101° East 490 564 33,400 3,420 Level FlightAware UK
07:04AM 49.4390 -7.5290 101° East 500 575 34,900  Climbing FlightAware
07:04AM 49.4196 -7.4077 101° East 490 564 33,400 -2,700 Descending FlightAware UK
07:04AM 49.4108 -7.3452 102° East 490 564 33,400 3,720 Level FlightAware UK
07:04AM 49.4190 -7.3920 102° East 500 575 34,900  Climbing FlightAware
07:05AM 49.3990 -7.2621 102° East 488 562 33,400 -2,520 Descending FlightAware UK
07:05AM 49.3901 -7.1998 102° East 490 564 33,400 4,080 Level FlightAware UK
07:05AM 49.4000 -7.2550 102° East 499 574 34,900  Climbing FlightAware
07:05AM 49.3771 -7.1171 102° East 488 562 33,400 -2,400 Descending FlightAware UK
07:06AM 49.3593 -7.0597 115° Southeast 488 562 33,400 3,600 Level FlightAware UK
07:06AM 49.3650 -7.1040 115° Southeast 496 571 34,900  Climbing FlightAware
07:06AM 49.3335 -6.9850 115° Southeast 490 564 33,400 -2,580 Descending FlightAware UK
07:06AM 49.3113 -6.9302 122° Southeast 490 564 33,400 3,900 Level FlightAware UK
07:06AM 49.3190 -6.9780 122° Southeast 500 575 34,900  Climbing FlightAware
07:07AM 49.2759 -6.8395 122° Southeast 490 564 33,400 -2,100 Descending FlightAware UK
07:07AM 49.2544 -6.7854 121° Southeast 490 564 33,400 4,500 Level FlightAware UK
07:07AM 49.2640 -6.8390 121° Southeast 498 573 34,900  Climbing FlightAware
07:07AM 49.2330 -6.7318 121° Southeast 488 562 33,400 -2,700 Descending FlightAware UK
07:08AM 49.2115 -6.6780 121° Southeast 490 564 33,400 4,680 Level FlightAware UK
07:08AM 49.2230 -6.7360 121° Southeast 498 573 34,900  Climbing FlightAware
07:08AM 49.1899 -6.6240 121° Southeast 490 564 33,400 -2,580 Descending FlightAware UK
07:08AM 49.1684 -6.5700 121° Southeast 490 564 33,400  Level FlightAware UK
07:09AM 49.1469 -6.5164 122° Southeast 490 564 33,400 3,600 Level FlightAware UK
07:09AM 49.1510 -6.5550 122° Southeast 497 572 34,900  Climbing FlightAware
07:09AM 49.1180 -6.4448 122° Southeast 490 564 33,400 -2,580 Descending FlightAware UK
07:09AM 49.0965 -6.3912 122° Southeast 488 562 33,400  Level FlightAware UK
07:10AM 49.0750 -6.3375 121° Southeast 488 562 33,400 2,520 Level FlightAware UK
07:10AM 49.0700 -6.3530 122° Southeast 496 571 34,900  Climbing FlightAware
07:10AM 49.0534 -6.2841 122° Southeast 488 562 33,400 -4,740 Descending FlightAware UK
07:10AM 49.0318 -6.2307 122° Southeast 488 562 33,400  Level FlightAware UK
07:10AM 49.0102 -6.1772 122° Southeast 490 564 33,400 3,420 Level FlightAware UK
07:11AM 49.0140 -6.2130 122° Southeast 497 572 34,900  Climbing FlightAware
07:11AM 48.9814 -6.1060 122° Southeast 488 562 33,400 -2,700 Descending FlightAware UK
07:11AM 48.9596 -6.0526 122° Southeast 488 562 33,400 3,720 Level FlightAware UK
07:11AM 48.9650 -6.0910 122° Southeast 497 572 34,900  Climbing FlightAware
07:12AM 48.9306 -5.9816 122° Southeast 486 559 33,400 -2,520 Descending FlightAware UK
07:12AM 48.9087 -5.9285 122° Southeast 488 562 33,400 4,080 Level FlightAware UK
07:12AM 48.9160 -5.9720 122° Southeast 497 572 34,900  Climbing FlightAware
07:12AM 48.8797 -5.8576 122° Southeast 486 559 33,400 -2,400 Descending FlightAware UK
07:13AM 48.8576 -5.8039 122° Southeast 486 559 33,400 3,600 Level FlightAware UK
07:13AM 48.8630 -5.8420 122° Southeast 498 573 34,900  Climbing FlightAware
07:13AM 48.8285 -5.7330 122° Southeast 486 559 33,400 -2,580 Descending FlightAware UK
07:13AM 48.8067 -5.6797 122° Southeast 486 559 33,400 3,900 Level FlightAware UK
07:13AM 48.8140 -5.7220 122° Southeast 499 574 34,900  Climbing FlightAware
07:14AM 48.7774 -5.6088 122° Southeast 484 557 33,400 -2,460 Descending FlightAware UK
07:14AM 48.7553 -5.5557 122° Southeast 486 559 33,400 3,420 Level FlightAware UK
07:14AM 48.7590 -5.5890 122° Southeast 501 577 34,900  Climbing FlightAware
07:14AM 48.7184 -5.4669 122° Southeast 486 559 33,400 -2,280 Descending FlightAware UK
07:15AM 48.6962 -5.4136 122° Southeast 486 559 33,400 4,980 Level FlightAware UK
07:15AM 48.7100 -5.4690 122° Southeast 501 577 34,900  Climbing FlightAware
07:15AM 48.6740 -5.3603 122° Southeast 488 562 33,400  Descending FlightAware UK
07:15AM 48.6620 -5.3550 122° Southeast 503 579 34,900  Climbing FlightAware
07:16AM 48.6222 -5.2360 122° Southeast 488 562 33,400 -2,400 Descending FlightAware UK
07:16AM 48.5998 -5.1828 122° Southeast 486 559 33,400 3,600 Level FlightAware UK
07:16AM 48.6060 -5.2210 122° Southeast 503 579 34,900  Climbing FlightAware
07:16AM 48.5700 -5.1120 122° Southeast 484 557 33,400  Descending FlightAware UK
07:17AM 48.5630 -5.1180 122° Southeast 504 580 34,900  Climbing FlightAware
07:17AM 48.5173 -4.9879 122° Southeast 484 557 33,400 -1,920 Descending FlightAware UK
07:18AM 48.4871 -4.9167 123° Southeast 486 559 33,400 1,320 Level FlightAware UK
07:18AM 48.4520 -4.8540 123° Southeast 508 585 34,900 1,080 Climbing FlightAware
07:19AM 48.4000 -4.7330 123° Southeast 507 583 34,900 -1,260 Level FlightAware
07:19AM 48.3416 -4.5783 123° Southeast 490 564 33,400  Descending FlightAware UK
07:20AM 48.3410 -4.5970 123° Southeast 502 578 34,900  Climbing FlightAware
07:20AM 48.2792 -4.4380 123° Southeast 490 564 33,400  Descending FlightAware UK
07:20AM 48.2890 -4.4780 123° Southeast 500 575 34,900  Climbing FlightAware
07:21AM 48.2403 -4.3508 123° Southeast 490 564 33,400  Descending FlightAware UK
07:21AM 48.2380 -4.3640 123° Southeast 500 575 34,900 1,500 Climbing FlightAware
07:22AM 48.1810 -4.2380 124° Southeast 500 575 34,900  Level FlightAware
07:22AM 48.1290 -4.1200 123° Southeast 500 575 34,900  Level FlightAware
07:23AM 48.0680 -3.9880 125° Southeast 500 575 34,900  Level FlightAware
07:24AM 48.0150 -3.8710 124° Southeast 500 575 34,900  Level FlightAware
07:24AM 47.9630 -3.7580 124° Southeast 503 579 34,900  Level FlightAware
07:25AM 47.9070 -3.6270 122° Southeast 503 579 34,900  Level FlightAware
07:26AM 47.8560 -3.5100 123° Southeast 505 581 34,900  Level FlightAware
07:27AM 47.7980 -3.3800 124° Southeast 502 578 34,900  Level FlightAware
07:27AM 47.7450 -3.2620 124° Southeast 502 578 34,900  Level FlightAware
07:28AM 47.6850 -3.1270 123° Southeast 506 582 34,900  Level FlightAware
07:29AM 47.6330 -3.0110 124° Southeast 507 583 34,900  Level FlightAware
07:29AM 47.5810 -2.8950 124° Southeast 507 583 34,900  Level FlightAware
07:30AM 47.5300 -2.7840 124° Southeast 508 585 34,900  Level FlightAware
07:31AM 47.4750 -2.6620 124° Southeast 508 585 34,900  Level FlightAware
07:32AM 47.4130 -2.5250 124° Southeast 507 583 34,900  Level FlightAware
07:32AM 47.3640 -2.4190 124° Southeast 507 583 34,900  Level FlightAware
07:33AM 47.3100 -2.3020 124° Southeast 507 583 34,900  Level FlightAware
07:34AM 47.2470 -2.1660 124° Southeast 508 585 34,900  Level FlightAware
07:34AM 47.1940 -2.0510 124° Southeast 510 587 34,900  Level FlightAware
07:35AM 47.1340 -1.9230 125° Southeast 511 588 34,900  Level FlightAware
07:36AM 47.0800 -1.8080 125° Southeast 513 590 34,900  Level FlightAware
07:36AM 47.0250 -1.6920 125° Southeast 515 593 34,900  Level FlightAware
07:37AM 46.9660 -1.5660 124° Southeast 517 595 34,900  Level FlightAware
07:38AM 46.9100 -1.4490 125° Southeast 519 597 34,900  Level FlightAware
07:39AM 46.8470 -1.3170 125° Southeast 523 602 34,900  Level FlightAware
07:39AM 46.7920 -1.2020 125° Southeast 527 606 34,900  Level FlightAware
07:40AM 46.7360 -1.0850 125° Southeast 527 606 34,900  Level FlightAware
07:41AM 46.6740 -0.9590 126° Southeast 525 604 34,900  Level FlightAware
07:42AM 46.6000 -0.8060 125° Southeast 524 603 34,900  Level FlightAware
07:42AM 46.5530 -0.7080 125° Southeast 524 603 34,900  Level FlightAware
07:43AM 46.5060 -0.6100 125° Southeast 524 603 34,900  Level FlightAware
07:44AM 46.4580 -0.4200 110° East 500 575 34,900  Level FlightAware
07:45AM 46.4410 -0.3500 109° East 500 575 34,900  Level FlightAware
07:45AM 46.3840 -0.1340 111° Southeast 500 575 34,900  Level FlightAware
07:46AM 46.4410 -0.3500 291° West 500 575 34,900  Level FlightAware
07:47AM 46.4140 -0.2430 110° East 500 575 34,900  Level FlightAware
07:48AM 46.3870 -0.1360 110° East 500 575 34,900  Level FlightAware
07:48AM 46.3530 -0.0020 110° East 500 575 34,900  Level FlightAware
07:49AM 46.3260 0.1050 110° East 500 575 34,900  Level FlightAware
07:50AM 46.2990 0.2120 110° East 500 575 34,900  Level FlightAware
07:50AM 46.2720 0.3190 110° East 500 575 34,900  Level FlightAware
07:51AM 46.2450 0.4260 110° East 500 575 34,900  Level FlightAware
07:52AM 46.2120 0.5590 110° East 500 575 34,900  Level FlightAware
07:53AM 46.1850 0.6660 110° East 500 575 34,900  Level FlightAware
07:53AM 46.1580 0.7730 110° East 500 575 34,900  Level FlightAware
07:54AM 46.1310 0.8790 110° East 500 575 34,900  Level FlightAware
07:55AM 45.9160 1.5990 113° Southeast 493 567 34,900  Level FlightAware
07:55AM 45.8740 1.7520 111° Southeast 493 567 34,900  Level FlightAware
07:56AM 45.8410 1.8760 111° Southeast 494 568 34,900 60 Level FlightAware
07:57AM 45.8090 1.9950 111° Southeast 494 568 35,000 540 Climbing FlightAware
07:57AM 45.7710 2.1360 111° Southeast 497 572 35,700 900 Climbing FlightAware
07:58AM 45.7370 2.2630 111° Southeast 501 577 36,300 840 Climbing FlightAware
07:59AM 45.7010 2.3960 111° Southeast 503 579 36,900 420 Climbing FlightAware
08:00AM 45.6680 2.5240 110° East 503 579 36,900  Level FlightAware
08:00AM 45.6350 2.6460 111° Southeast 503 579 36,900 60 Level FlightAware
08:01AM 45.5970 2.7920 110° East 502 578 37,000 60 Climbing FlightAware
08:02AM 45.5630 2.9240 110° East 502 578 37,000 -120 Level FlightAware
08:03AM 45.5240 3.0690 111° Southeast 500 575 36,900 -120 Descending FlightAware
08:03AM 45.4870 3.2060 111° Southeast 496 571 36,900  Level FlightAware
08:04AM 45.4560 3.3300 110° East 496 571 36,900  Level FlightAware
08:05AM 45.4200 3.4690 110° East 496 571 36,900  Level FlightAware
08:05AM 45.3890 3.5870 110° East 495 570 36,900  Level FlightAware
08:06AM 45.3550 3.7180 110° East 497 572 36,900  Level FlightAware
08:07AM 45.3190 3.8600 110° East 495 570 36,900  Level FlightAware
08:07AM 45.2760 3.9790 117° Southeast 495 570 36,900  Level FlightAware
08:08AM 45.2250 4.0840 125° Southeast 494 568 36,900  Level FlightAware
08:09AM 45.1640 4.2070 125° Southeast 494 568 36,900  Level FlightAware
08:10AM 45.1110 4.3130 125° Southeast 493 567 36,900  Level FlightAware
08:10AM 45.0530 4.4280 125° Southeast 491 565 36,900  Level FlightAware
08:11AM 45.0010 4.5320 125° Southeast 490 564 36,900  Level FlightAware
08:12AM 44.9480 4.6370 125° Southeast 490 564 36,900  Level FlightAware
08:12AM 44.8870 4.7580 125° Southeast 489 563 36,900  Level FlightAware
08:13AM 44.8360 4.8570 126° Southeast 489 563 36,900  Level FlightAware
08:14AM 44.7770 4.9740 125° Southeast 491 565 36,900  Level FlightAware
08:14AM 44.7210 5.0830 126° Southeast 491 565 36,900  Level FlightAware
08:15AM 44.6720 5.1820 125° Southeast 490 564 36,900 60 Level FlightAware
08:16AM 44.6300 5.2720 123° Southeast 489 563 37,000  Climbing FlightAware
08:17AM 44.5570 5.4330 122° Southeast 489 563 36,900 -60 Descending FlightAware
08:17AM 44.5160 5.5220 123° Southeast 489 563 36,900 60 Level FlightAware
08:18AM 44.4510 5.6670 122° Southeast 485 558 37,000  Climbing FlightAware
08:19AM 44.3990 5.7790 123° Southeast 486 559 36,900 -120 Descending FlightAware
08:20AM 44.3510 5.8830 123° Southeast 488 562 36,900  Level FlightAware
08:20AM 44.2930 6.0070 123° Southeast 488 562 36,900  Level FlightAware
08:21AM 44.2450 6.1100 123° Southeast 488 562 36,900  Level FlightAware
08:22AM 44.1900 6.2280 123° Southeast 488 562 36,900  Level FlightAware
08:22AM 44.1390 6.3350 124° Southeast 489 563 36,900  Level FlightAware
08:23AM 44.0870 6.4450 123° Southeast 494 568 36,900 60 Level FlightAware
08:24AM 44.0320 6.5620 123° Southeast 495 570 37,000 60 Climbing FlightAware
08:24AM 43.9840 6.6620 124° Southeast 496 571 37,000 -120 Level FlightAware
08:25AM 43.9240 6.7880 123° Southeast 499 574 36,900 -120 Descending FlightAware
08:26AM 43.8730 6.8940 124° Southeast 501 577 36,900  Level FlightAware
08:27AM 43.8160 7.0130 124° Southeast 503 579 36,900  Level FlightAware
08:27AM 43.7670 7.1140 124° Southeast 505 581 36,900 60 Level FlightAware
08:28AM 43.7180 7.2150 124° Southeast 507 583 37,000 60 Climbing FlightAware
08:29AM 43.6510 7.3530 124° Southeast 511 588 37,000 -120 Level FlightAware
08:29AM 43.6000 7.4570 124° Southeast 512 589 36,900 -120 Descending FlightAware
08:30AM 43.5410 7.5780 124° Southeast 511 588 36,900  Level FlightAware
08:31AM 43.4910 7.6780 125° Southeast 511 588 36,900  Level FlightAware
08:31AM 43.4320 7.7970 124° Southeast 510 587 36,900  Level FlightAware
08:32AM 43.3750 7.9130 124° Southeast 505 581 36,900  Level FlightAware
08:33AM 43.3210 8.0210 124° Southeast 502 578 36,900 60 Level FlightAware
08:34AM 43.2460 8.1710 124° Southeast 501 577 37,000 60 Climbing FlightAware
08:35AM 43.1850 8.2920 125° Southeast 500 575 37,000 -120 Level FlightAware
08:35AM 43.1270 8.4070 125° Southeast 500 575 36,900 -120 Descending FlightAware
08:36AM 43.0760 8.5080 125° Southeast 500 575 36,900  Level FlightAware
08:37AM 43.0230 8.6110 125° Southeast 500 575 36,900  Level FlightAware
08:37AM 42.9620 8.7310 125° Southeast 500 575 36,900 60 Level FlightAware
08:38AM 42.9090 8.8350 125° Southeast 501 577 37,000 60 Climbing FlightAware
08:39AM 42.8510 8.9480 125° Southeast 503 579 37,000 -120 Level FlightAware
08:39AM 42.7970 9.0540 125° Southeast 505 581 36,900 -120 Descending FlightAware
08:40AM 42.7440 9.1590 124° Southeast 508 585 36,900  Level FlightAware
08:41AM 42.6960 9.2890 117° Southeast 502 578 36,900  Level FlightAware
08:41AM 42.6660 9.3910 112° Southeast 502 578 36,900  Level FlightAware
08:42AM 42.6230 9.5390 112° Southeast 507 583 36,900  Level FlightAware
08:43AM 42.5890 9.6550 112° Southeast 507 583 36,900  Level FlightAware
08:44AM 42.5560 9.7650 112° Southeast 502 578 36,900 60 Level FlightAware
08:44AM 42.5150 9.9060 111° Southeast 499 574 37,000  Climbing FlightAware
08:45AM 42.4820 10.0160 112° Southeast 499 574 36,900 -120 Descending FlightAware
08:46AM 42.4450 10.1380 112° Southeast 496 571 36,900  Level FlightAware
08:46AM 42.4070 10.2650 112° Southeast 496 571 36,900  Level FlightAware
08:47AM 42.3720 10.3820 112° Southeast 496 571 36,900 60 Level FlightAware
08:48AM 42.3390 10.4920 112° Southeast 496 571 37,000  Climbing FlightAware
08:49AM 42.2990 10.6240 112° Southeast 497 572 36,900 -120 Descending FlightAware
08:49AM 42.2630 10.7400 113° Southeast 497 572 36,900  Level FlightAware
08:50AM 42.2230 10.8640 114° Southeast 492 566 36,900  Level FlightAware
08:51AM 42.1650 10.9590 129° Southeast 484 557 36,900  Level FlightAware
08:51AM 42.1080 11.0520 130° Southeast 486 559 36,900  Level FlightAware
08:52AM 42.0600 11.1360 128° Southeast 487 560 36,900  Level FlightAware
08:53AM 41.9750 11.2870 127° Southeast 488 562 36,900  Level FlightAware
08:54AM 41.9170 11.3810 130° Southeast 486 559 36,900  Level FlightAware
08:55AM 41.8390 11.5080 129° Southeast 486 559 36,900  Level FlightAware
08:55AM 41.7740 11.6130 130° Southeast 486 559 36,900 60 Level FlightAware
08:56AM 41.7170 11.7050 130° Southeast 486 559 37,000  Climbing FlightAware
08:57AM 41.6600 11.7980 129° Southeast 482 555 36,900  Descending FlightAware
08:57AM 41.5950 11.9010 130° Southeast 484 557 37,000  Climbing FlightAware
08:58AM 41.5350 11.9980 130° Southeast 488 562 36,900 -120 Descending FlightAware
08:59AM 41.4700 12.1020 130° Southeast 489 563 36,900  Level FlightAware
08:59AM 41.4150 12.1890 130° Southeast 490 564 36,900  Level FlightAware
09:00AM 41.3450 12.3000 130° Southeast 496 571 36,900  Level FlightAware
09:01AM 41.2830 12.3970 130° Southeast 498 573 36,900  Level FlightAware
09:02AM 41.2210 12.4950 130° Southeast 498 573 36,900  Level FlightAware
09:02AM 41.1700 12.5760 130° Southeast 497 572 36,900  Level FlightAware
09:03AM 41.0990 12.7160 124° Southeast 499 574 36,900  Level FlightAware
09:04AM 41.0410 12.8480 120° Southeast 500 575 36,900  Level FlightAware
09:05AM 40.9980 12.9460 120° Southeast 506 582 36,900  Level FlightAware
09:05AM 40.9400 13.0750 121° Southeast 507 583 36,900 60 Level FlightAware
09:06AM 40.9020 13.1600 121° Southeast 507 583 37,000  Climbing FlightAware
09:07AM 40.8390 13.3010 121° Southeast 507 583 36,900 -120 Descending FlightAware
09:07AM 40.7850 13.4200 121° Southeast 507 583 36,900  Level FlightAware
09:08AM 40.7370 13.5250 121° Southeast 507 583 36,900  Level FlightAware
09:09AM 40.6810 13.6500 121° Southeast 507 583 36,900  Level FlightAware
09:10AM 40.6330 13.7550 121° Southeast 509 586 36,900  Level FlightAware
09:10AM 40.5840 13.8620 121° Southeast 509 586 36,900  Level FlightAware
09:11AM 40.5310 13.9770 121° Southeast 510 587 36,900 60 Level FlightAware
09:12AM 40.4820 14.0840 121° Southeast 511 588 37,000  Climbing FlightAware
09:12AM 40.4330 14.1900 121° Southeast 513 590 36,900 -120 Descending FlightAware
09:13AM 40.3760 14.3130 121° Southeast 515 593 36,900  Level FlightAware
09:14AM 40.3260 14.4190 122° Southeast 516 594 36,900  Level FlightAware
09:14AM 40.2710 14.5380 121° Southeast 517 595 36,900  Level FlightAware
09:15AM 40.2210 14.6440 122° Southeast 517 595 36,900  Level FlightAware
09:16AM 40.1640 14.7660 121° Southeast 518 596 36,900 60 Level FlightAware
09:17AM 40.1130 14.8720 122° Southeast 520 598 37,000  Climbing FlightAware
09:17AM 40.0610 14.9810 122° Southeast 521 600 36,900 -120 Descending FlightAware
09:18AM 40.0060 15.0980 122° Southeast 521 600 36,900  Level FlightAware
09:19AM 39.9540 15.2050 122° Southeast 521 600 36,900  Level FlightAware
09:19AM 39.8960 15.3260 122° Southeast 523 602 36,900  Level FlightAware
09:20AM 39.8450 15.4340 122° Southeast 525 604 36,900  Level FlightAware
09:21AM 39.7930 15.5410 122° Southeast 526 605 36,900  Level FlightAware
09:21AM 39.7370 15.6590 122° Southeast 530 610 36,900  Level FlightAware
09:22AM 39.6940 15.7730 116° Southeast 532 612 36,900  Level FlightAware
09:23AM 39.6540 15.8910 114° Southeast 533 613 36,900  Level FlightAware
09:24AM 39.6080 16.0260 114° Southeast 533 613 36,900  Level FlightAware
09:24AM 39.5680 16.1430 114° Southeast 534 615 36,900  Level FlightAware
09:25AM 39.5250 16.2700 114° Southeast 534 615 36,900  Level FlightAware
09:26AM 39.4850 16.3870 114° Southeast 534 615 36,900  Level FlightAware
09:26AM 39.4440 16.5060 114° Southeast 533 613 36,900  Level FlightAware
09:27AM 39.3990 16.6380 114° Southeast 531 611 36,900  Level FlightAware
09:28AM 39.3600 16.7530 114° Southeast 530 610 36,900  Level FlightAware
09:28AM 39.3150 16.8830 114° Southeast 530 610 36,900  Level FlightAware
09:29AM 39.2870 16.9620 115° Southeast 530 610 36,900  Level FlightAware
09:30AM 39.2170 17.1630 114° Southeast 531 611 36,900  Level FlightAware
09:31AM 39.1490 17.3560 114° Southeast 533 613 36,900  Level FlightAware
09:32AM 39.1080 17.4730 114° Southeast 533 613 36,900  Level FlightAware
09:33AM 39.0660 17.5910 115° Southeast 533 613 36,900  Level FlightAware
09:34AM 39.0230 17.7120 115° Southeast 534 615 36,900  Level FlightAware
09:34AM 38.9840 17.8210 115° Southeast 535 616 36,900  Level FlightAware
09:35AM 38.9360 17.9540 115° Southeast 535 616 36,900  Level FlightAware
09:36AM 38.8790 18.1120 115° Southeast 534 615 36,900  Level FlightAware
09:37AM 38.8370 18.2280 115° Southeast 534 615 36,900  Level FlightAware
09:37AM 38.7840 18.3730 115° Southeast 534 615 36,900  Level FlightAware
09:38AM 38.7430 18.4840 115° Southeast 535 616 36,900  Level FlightAware
09:39AM 38.6960 18.6100 116° Southeast 537 618 36,900  Level FlightAware
09:39AM 38.6530 18.7270 115° Southeast 536 617 36,900  Level FlightAware
09:40AM 38.5940 18.8870 115° Southeast 536 617 36,900  Level FlightAware
09:41AM 38.5580 18.9840 115° Southeast 536 617 36,900  Level FlightAware
09:42AM 38.5230 19.0820 115° Southeast 536 617 36,900  Level FlightAware
09:42AM 38.4780 19.2040 115° Southeast 536 617 36,900  Level FlightAware
09:43AM 38.4420 19.3020 115° Southeast 536 617 36,900  Level FlightAware
09:44AM 38.4200 19.5030 98° East 537 618 36,900  Level FlightAware
09:44AM 38.3890 19.6180 109° East 538 619 36,900  Level FlightAware
09:45AM 38.3530 19.7500 109° East 538 619 36,900  Level FlightAware
09:46AM 38.3190 19.8740 109° East 538 619 36,900  Level FlightAware
09:47AM 38.2730 20.0430 109° East 539 620 36,900  Level FlightAware
09:48AM 38.2250 20.2170 109° East 539 620 36,900  Level FlightAware
09:48AM 38.1870 20.3500 110° East 542 624 36,900  Level FlightAware
09:49AM 38.1520 20.4710 110° East 543 625 36,900  Level FlightAware
09:50AM 38.1070 20.5960 115° Southeast 543 625 36,900  Level FlightAware
09:50AM 38.0640 20.7100 116° Southeast 542 624 36,900  Level FlightAware
09:51AM 38.0170 20.8320 116° Southeast 36,900  Level FlightAware
09:52AM 37.9690 20.9580 116° Southeast 542 624 36,900  Level FlightAware
09:52AM 37.9260 21.0740 115° Southeast 542 624 36,900  Level FlightAware
09:53AM 37.8770 21.1950 117° Southeast 544 626 36,900  Level FlightAware
09:54AM 37.8280 21.3220 116° Southeast 544 626 36,900  Level FlightAware
09:55AM 37.7870 21.4270 116° Southeast 545 627 36,900  Level FlightAware
09:55AM 37.7440 21.5380 116° Southeast 545 627 36,900  Level FlightAware
09:56AM 37.6710 21.7230 116° Southeast 542 624 36,900  Level FlightAware
09:57AM 37.6150 21.8630 117° Southeast 542 624 36,900  Level FlightAware
09:58AM 37.5720 21.9740 116° Southeast 542 624 36,900  Level FlightAware
09:58AM 37.5210 22.1000 117° Southeast 541 623 36,900  Level FlightAware
09:59AM 37.4670 22.2350 117° Southeast 541 623 36,900  Level FlightAware
10:00AM 37.4190 22.3400 120° Southeast 542 624 36,900  Level FlightAware
10:01AM 37.3550 22.4600 124° Southeast 542 624 36,900  Level FlightAware
10:02AM 37.2480 22.6380 127° Southeast 544 626 36,900  Level FlightAware
10:03AM 37.1910 22.7360 126° Southeast 545 627 36,900  Level FlightAware
10:03AM 37.1220 22.8530 126° Southeast 545 627 36,900  Level FlightAware
10:04AM 37.0540 22.9690 126° Southeast 545 627 36,900  Level FlightAware
10:05AM 36.9940 23.0720 126° Southeast 545 627 36,900  Level FlightAware
10:05AM 36.9340 23.1720 127° Southeast 545 627 36,900  Level FlightAware
10:06AM 36.8800 23.2630 127° Southeast 545 627 36,900  Level FlightAware
10:07AM 36.8230 23.3600 126° Southeast 544 626 36,900  Level FlightAware
10:08AM 36.7640 23.4600 126° Southeast 544 626 36,900  Level FlightAware
10:08AM 36.6560 23.6380 127° Southeast 543 625 36,900  Level FlightAware
10:09AM 36.6030 23.7270 127° Southeast 545 627 36,900  Level FlightAware
10:10AM 36.5440 23.8270 126° Southeast 545 627 36,900  Level FlightAware
10:10AM 36.4700 23.9480 127° Southeast 547 629 36,900  Level FlightAware
10:11AM 36.4150 24.0400 127° Southeast 547 629 36,900  Level FlightAware
10:12AM 36.3460 24.1520 127° Southeast 548 631 36,900  Level FlightAware
10:12AM 36.2950 24.2380 126° Southeast 548 631 36,900  Level FlightAware
10:13AM 36.2170 24.3630 128° Southeast 549 632 36,900  Level FlightAware
10:14AM 36.1480 24.4750 127° Southeast 549 632 36,900  Level FlightAware
10:15AM 36.0850 24.5770 127° Southeast 549 632 36,900  Level FlightAware
10:15AM 36.0260 24.6750 127° Southeast 549 632 36,900  Level FlightAware
10:16AM 35.9740 24.7600 127° Southeast 549 632 36,900  Level FlightAware
10:17AM 35.8840 24.9030 128° Southeast 550 633 36,900  Level FlightAware
10:17AM 35.8210 25.0030 128° Southeast 551 634 36,900  Level FlightAware
10:18AM 35.7620 25.0980 127° Southeast 552 635 36,900  Level FlightAware
10:19AM 35.6910 25.2110 128° Southeast 553 636 36,900  Level FlightAware
10:19AM 35.6450 25.2860 127° Southeast 552 635 36,900  Level FlightAware
10:20AM 35.5830 25.3860 127° Southeast 552 635 36,900  Level FlightAware
10:21AM 35.5180 25.4930 127° Southeast 552 635 36,900  Level FlightAware
10:22AM 35.4660 25.5780 127° Southeast 552 635 36,900  Level FlightAware
10:22AM 35.4130 25.6630 127° Southeast 552 635 36,900  Level FlightAware
10:23AM 35.3610 25.7480 127° Southeast 552 635 36,900  Level FlightAware
10:24AM 35.2960 25.8540 127° Southeast 552 635 36,900  Level FlightAware
10:24AM 35.2430 25.9390 127° Southeast 552 635 36,900  Level FlightAware
10:25AM 35.1910 26.0240 127° Southeast 552 635 36,900  Level FlightAware
10:26AM 35.1390 26.1090 127° Southeast 552 635 36,900  Level FlightAware
10:26AM 35.0870 26.1940 127° Southeast 552 635 36,900  Level FlightAware
10:27AM 35.0210 26.3000 127° Southeast 552 635 36,900  Level FlightAware
10:28AM 34.9690 26.3840 127° Southeast 552 635 36,900  Level FlightAware
10:29AM 34.9170 26.4690 127° Southeast 552 635 36,900  Level FlightAware
10:29AM 34.8650 26.5530 127° Southeast 552 635 36,900  Level FlightAware
10:32AM 34.7567 26.9132 110° East  Level Estimated
10:33AM 34.7075 27.0753 110° East  Level Estimated
10:34AM 34.6581 27.2373 110° East  Level Estimated
10:35AM 34.6084 27.3991 110° East  Level Estimated
10:36AM 34.5586 27.5607 110° East  Level Estimated
10:37AM 34.5085 27.7221 111° Southeast  Level Estimated
10:38AM 34.4583 27.8833 111° Southeast  Level Estimated
10:39AM 34.4078 28.0443 111° Southeast  Level Estimated
10:40AM 34.3571 28.2051 111° Southeast  Level Estimated
10:40AM 34.2050 28.7510 111° Southeast 565 650 36,900  Level FlightAware
10:41AM 34.1720 28.8420 114° Southeast 565 650 36,900  Level FlightAware
10:41AM 34.1300 28.9630 113° Southeast 565 650 36,900 60 Level FlightAware
10:42AM 34.0740 29.1210 113° Southeast 568 654 37,000 60 Climbing FlightAware
10:43AM 34.0410 29.2130 113° Southeast 568 654 37,000 -120 Level FlightAware
10:44AM 33.9900 29.3550 113° Southeast 569 655 36,900 -120 Descending FlightAware
10:44AM 33.9570 29.4460 114° Southeast 568 654 36,900  Level FlightAware
10:45AM 33.9000 29.6040 113° Southeast 569 655 36,900  Level FlightAware
10:46AM 33.8480 29.7480 113° Southeast 569 655 36,900  Level FlightAware
10:47AM 33.7970 29.8860 114° Southeast 569 655 36,900  Level FlightAware
10:48AM 33.7570 30.0690 105° East 562 647 36,900  Level FlightAware
10:49AM 33.7530 30.3160 91° East 559 643 36,900  Level FlightAware
10:50AM 33.7500 30.5920 91° East 559 643 36,900  Level FlightAware
10:51AM 33.7470 30.7510 91° East 558 642 36,900  Level FlightAware
10:52AM 33.7450 30.8750 91° East 558 642 36,900  Level FlightAware
10:53AM 33.7420 31.0120 91° East 556 640 36,900  Level FlightAware
10:53AM 33.7400 31.1440 91° East 553 636 36,900  Level FlightAware
10:55AM 33.7340 31.4390 91° East 548 631 36,900  Level FlightAware
10:56AM 33.7280 31.6810 92° East 547 629 36,900  Level FlightAware
10:57AM 33.6970 31.8600 102° East 548 631 37,000  Climbing FlightAware
10:59AM 33.6080 32.0410 121° Southeast 544 626 36,900 -60 Descending FlightAware
10:59AM 33.5560 32.1440 121° Southeast 545 627 36,900  Level FlightAware
11:00AM 33.4990 32.2540 122° Southeast 545 627 36,900 -660 Level FlightAware
11:01AM 33.4400 32.3690 122° Southeast 546 628 36,000 -1,380 Descending FlightAware
11:01AM 33.3870 32.4740 121° Southeast 554 638 35,000 -1,500 Descending FlightAware
11:02AM 33.3320 32.5810 122° Southeast 553 636 34,000 -1,320 Descending FlightAware
11:03AM 33.2730 32.6980 121° Southeast 543 625 33,200 -1,140 Descending FlightAware
11:03AM 33.2160 32.8080 122° Southeast 538 619 32,400 -720 Descending FlightAware
11:04AM 33.1720 32.8940 121° Southeast 537 618 32,300 -2,100 Descending FlightAware
11:05AM 33.1250 32.9850 122° Southeast 515 593 29,800 -3,000 Descending FlightAware
11:06AM 33.0450 33.1420 121° Southeast 497 572 27,300 -2,400 Descending FlightAware
11:06AM 32.9900 33.2500 121° Southeast 477 549 25,500 -2,340 Descending FlightAware
11:07AM 32.9520 33.3240 121° Southeast 466 536 24,200 -1,020 Descending FlightAware
11:08AM 32.9070 33.4130 121° Southeast 466 536 24,200 -2,100 Level FlightAware
11:09AM 32.8500 33.5200 122° Southeast 431 496 21,100 -3,120 Descending FlightAware
11:09AM 32.8110 33.5960 121° Southeast 420 483 19,800 -1,920 Descending FlightAware
11:10AM 32.7650 33.6850 122° Southeast 407 468 18,400 -1,860 Descending FlightAware
11:11AM 32.7260 33.7590 122° Southeast 394 453 17,200 -1,860 Descending FlightAware
11:11AM 32.6830 33.8410 122° Southeast 383 441 15,800 -1,800 Descending FlightAware
11:12AM 32.6460 33.9130 121° Southeast 381 438 14,700 -1,740 Descending FlightAware
11:13AM 32.6150 33.9880 116° Southeast 384 442 13,500 -1,800 Descending FlightAware
11:13AM 32.5860 34.0800 110° East 385 443 12,200 -1,740 Descending FlightAware
11:14AM 32.5610 34.1580 111° Southeast 381 438 11,100 -1,500 Descending FlightAware
11:15AM 32.5140 34.2190 132° Southeast 368 423 10,200 -1,080 Descending FlightAware
11:15AM 32.4800 34.2620 133° Southeast 350 403 9,900 -240 Descending FlightAware
11:16AM 32.4430 34.2950 143° Southeast 318 366 10,000  Climbing FlightAware
11:16AM 32.4140 34.3180 146° Southeast 301 346 9,900 -600 Descending FlightAware
11:17AM 32.3800 34.3470 144° Southeast 293 337 9,500 -900 Descending FlightAware
11:17AM 32.3690 34.3560 145° Southeast 292 336 9,300 -360 Descending FlightAware
11:17AM 32.3450 34.3770 144° Southeast 292 336 9,300  Level FlightAware
11:18AM 32.3170 34.4010 144° Southeast 292 336 9,300  Level FlightAware
11:18AM 32.2990 34.4170 143° Southeast 292 336 9,300  Level FlightAware
11:18AM 32.2800 34.4320 146° Southeast 292 336 9,300 -120 Level FlightAware
11:21AM 32.1166 34.7168 133° Southeast  Level FlightAware Approximate
11:22AM 32.0201 34.8398 131° Southeast  Level FlightAware Approximate
11:23AM 32.0000 34.8667 131° Southeast  Level FlightAware Approximate
11:23AM 32.4030 34.3750 131° Southeast 231 266 9,000  Level FlightAware
11:23AM 32.4200 34.3420 301° West 234 269 9,000 -120 Level FlightAware
11:24AM 32.4270 34.3130 286° West 232 267 8,900 -180 Descending FlightAware
11:24AM 32.4250 34.2950 263° West 238 274 8,900  Level FlightAware
11:24AM 32.4190 34.2810 243° Southwest 244 281 8,900  Level FlightAware
11:24AM 32.4130 34.2720 232° Southwest 249 287 8,900  Level FlightAware
11:25AM 32.3910 34.2580 208° Southwest 262 302 8,900 -240 Level FlightAware
11:25AM 32.3800 34.2560 189° South 270 311 8,800 -1,200 Descending FlightAware
11:25AM 32.3560 34.2640 164° South 284 327 8,300 -1,560 Descending FlightAware
11:25AM 32.3420 34.2810 134° Southeast 293 337 7,900 -840 Descending FlightAware
11:26AM 32.3180 34.3280 121° Southeast 298 343 7,600 -540 Descending FlightAware
11:29AM 32.1376 34.6888 132° Southeast  Level FlightAware Approximate
11:30AM 32.0437 34.8085 131° Southeast  Level FlightAware Approximate
11:31AM 32.0000 34.8667 131° Southeast  Level FlightAware Approximate
11:32AM 32.0095 34.8769 131° Southeast  Level Estimated
11:33AM 32.0095 34.8769 131° Southeast  Level Estimated
11:34AM 32.0095 34.8769 131° Southeast  Level Estimated
11:35AM 32.0095 34.8769 131° Southeast  Level Estimated
11:36AM 32.0095 34.8769 131° Southeast  Level Estimated
11:37AM 32.0095 34.8769 131° Southeast  Level Estimated
11:38AM 32.0095 34.8769 131° Southeast  Level Estimated
11:39AM 32.0095 34.8769 131° Southeast  Level Estimated
11:40AM 32.0095 34.8769 131° Southeast  Level Estimated
11:41AM 32.0095 34.8769 131° Southeast  Level Estimated
11:42AM 32.0095 34.8769 131° Southeast  Level Estimated